Time,TemperatureF,DewpointF,PressureIn,WindDirection,WindDirectionDegrees,WindSpeedMPH,WindSpeedGustMPH,Humidity,HourlyPrecipIn,Conditions,Clouds,dailyrainin,SoftwareType,DateUTC
2013-01-23 00:07:00,5.7,-11.9,30.21,SSE,165,3.0,5.4,43,0.00,,,-99.99,FreeWX-Wi 1.01,2013-01-23 06:07:00,
2013-01-23 00:17:00,5.9,-11.7,30.21,SSE,166,3.0,4.9,43,0.00,,,-99.99,FreeWX-Wi 1.01,2013-01-23 06:17:00,
2013-01-23 00:27:00,5.9,-11.7,30.21,SSE,168,3.0,4.0,43,0.00,,,-99.99,FreeWX-Wi 1.01,2013-01-23 06:27:00,
2013-01-23 00:48:00,6.1,-11.6,30.18,South,177,3.0,4.9,43,0.00,,,-99.99,FreeWX-Wi 1.01,2013-01-23 06:48:00,
2013-01-23 00:58:00,6.1,-11.6,30.18,South,181,3.0,5.8,43,0.00,,,-99.99,FreeWX-Wi 1.01,2013-01-23 06:58:00,
2013-01-23 01:08:00,6.3,-11.4,30.18,South,186,3.0,4.0,43,0.00,,,-99.99,FreeWX-Wi 1.01,2013-01-23 07:08:00,
2013-01-23 01:18:00,6.3,-11.4,30.18,South,184,3.0,4.9,43,0.00,,,-99.99,FreeWX-Wi 1.01,2013-01-23 07:18:00,
2013-01-23 01:28:00,6.4,-11.2,30.18,South,183,2.0,3.6,43,0.00,,,-99.99,FreeWX-Wi 1.01,2013-01-23 07:28:00,
2013-01-23 01:38:00,6.4,-11.2,30.18,South,175,2.0,4.0,43,0.00,,,-99.99,FreeWX-Wi 1.01,2013-01-23 07:38:00,
2013-01-23 01:48:00,6.4,-11.2,30.15,SSE,164,3.0,4.9,43,0.00,,,-99.99,FreeWX-Wi 1.01,2013-01-23 07:48:00,
2013-01-23 01:58:00,6.6,-11.0,30.15,SSE,157,3.0,4.5,43,0.00,,,-99.99,FreeWX-Wi 1.01,2013-01-23 07:58:00,
2013-01-23 02:08:00,6.8,-10.8,30.18,SSE,158,2.0,3.6,43,0.00,,,-99.99,FreeWX-Wi 1.01,2013-01-23 08:08:00,
2013-01-23 02:18:00,7.0,-10.7,30.15,SSE,159,2.0,4.0,43,0.00,,,-99.99,FreeWX-Wi 1.01,2013-01-23 08:18:00,
2013-01-23 02:28:00,7.0,-10.7,30.15,SSE,160,3.0,5.4,43,0.00,,,-99.99,FreeWX-Wi 1.01,2013-01-23 08:28:00,
2013-01-23 02:38:00,7.2,-10.7,30.15,SSE,155,3.0,5.4,43,0.00,,,-99.99,FreeWX-Wi 1.01,2013-01-23 08:38:00,
2013-01-23 02:48:00,7.2,-10.7,30.15,SSE,148,3.0,4.9,43,0.00,,,-99.99,FreeWX-Wi 1.01,2013-01-23 08:48:00,
2013-01-23 02:58:00,7.3,-10.5,30.15,SE,140,3.0,3.6,43,0.00,,,-99.99,FreeWX-Wi 1.01,2013-01-23 08:58:00,
2013-01-23 03:08:00,7.3,-10.5,30.15,SE,137,3.0,4.0,43,0.00,,,-99.99,FreeWX-Wi 1.01,2013-01-23 09:08:00,
2013-01-23 03:18:00,7.3,-10.5,30.15,SE,138,2.0,3.1,43,0.00,,,-99.99,FreeWX-Wi 1.01,2013-01-23 09:18:00,
2013-01-23 03:28:00,7.5,-10.3,30.15,SE,138,2.0,4.0,43,0.00,,,-99.99,FreeWX-Wi 1.01,2013-01-23 09:28:00,
2013-01-23 03:38:00,7.5,-10.3,30.15,SE,138,2.0,4.0,43,0.00,,,-99.99,FreeWX-Wi 1.01,2013-01-23 09:38:00,
2013-01-23 03:48:00,7.5,-10.3,30.15,SE,144,2.0,4.0,43,0.00,,,-99.99,FreeWX-Wi 1.01,2013-01-23 09:48:00,
2013-01-23 03:58:00,7.7,-10.1,30.15,SSE,151,2.0,3.6,43,0.00,,,-99.99,FreeWX-Wi 1.01,2013-01-23 09:58:00,
2013-01-23 04:08:00,7.7,-10.1,30.15,SSE,156,1.0,3.6,43,0.00,,,-99.99,FreeWX-Wi 1.01,2013-01-23 10:08:00,
2013-01-23 04:18:00,7.7,-10.1,30.12,SSE,156,1.0,3.6,43,0.00,,,-99.99,FreeWX-Wi 1.01,2013-01-23 10:18:00,
2013-01-23 04:28:00,7.7,-10.1,30.12,SSE,156,1.0,3.6,43,0.00,,,-99.99,FreeWX-Wi 1.01,2013-01-23 10:28:00,
2013-01-23 04:38:00,7.9,-9.9,30.12,SSE,158,1.0,4.0,43,0.00,,,-99.99,FreeWX-Wi 1.01,2013-01-23 10:38:00,
2013-01-23 04:48:00,7.9,-9.9,30.12,SSE,159,1.0,2.7,43,0.00,,,-99.99,FreeWX-Wi 1.01,2013-01-23 10:48:00,
2013-01-23 04:58:00,7.9,-9.9,30.12,SSE,159,1.0,3.1,43,0.00,,,-99.99,FreeWX-Wi 1.01,2013-01-23 10:58:00,
2013-01-23 05:08:00,8.1,-9.8,30.12,SSE,161,1.0,3.1,43,0.00,,,-99.99,FreeWX-Wi 1.01,2013-01-23 11:08:00,
2013-01-23 05:18:00,8.1,-9.8,30.12,SSE,164,1.0,4.0,43,0.00,,,-99.99,FreeWX-Wi 1.01,2013-01-23 11:18:00,
2013-01-23 05:28:00,8.1,-9.8,30.12,SSE,166,1.0,3.6,43,0.00,,,-99.99,FreeWX-Wi 1.01,2013-01-23 11:28:00,
2013-01-23 05:38:00,8.1,-9.8,30.12,South,174,1.0,4.0,43,0.00,,,-99.99,FreeWX-Wi 1.01,2013-01-23 11:38:00,
2013-01-23 05:48:00,8.1,-9.8,30.12,South,184,1.0,2.7,43,0.00,,,-99.99,FreeWX-Wi 1.01,2013-01-23 11:48:00,
2013-01-23 05:58:00,8.2,-9.6,30.12,North,-999,0.0,3.1,43,0.00,,,-99.99,FreeWX-Wi 1.01,2013-01-23 11:58:00,
2013-01-23 06:08:00,8.1,-9.8,30.12,North,-999,0.0,2.7,43,0.00,,,-99.99,FreeWX-Wi 1.01,2013-01-23 12:08:00,
2013-01-23 06:18:00,8.1,-9.8,30.12,North,-999,0.0,2.7,43,0.00,,,-99.99,FreeWX-Wi 1.01,2013-01-23 12:18:00,
2013-01-23 06:29:00,8.1,-9.8,30.12,North,-999,0.0,2.7,43,0.00,,,-99.99,FreeWX-Wi 1.01,2013-01-23 12:29:00,
2013-01-23 06:39:00,7.9,-9.9,30.12,North,-999,0.0,3.6,43,0.00,,,-99.99,FreeWX-Wi 1.01,2013-01-23 12:39:00,
2013-01-23 06:49:00,7.7,-10.1,30.12,North,-999,0.0,0.0,43,0.00,,,-99.99,FreeWX-Wi 1.01,2013-01-23 12:49:00,
2013-01-23 06:59:00,7.3,-10.5,30.12,North,-999,0.0,0.0,43,0.00,,,-99.99,FreeWX-Wi 1.01,2013-01-23 12:59:00,
2013-01-23 07:09:00,6.6,-11.0,30.12,North,-999,0.0,0.0,43,0.00,,,-99.99,FreeWX-Wi 1.01,2013-01-23 13:09:00,
2013-01-23 07:19:00,5.9,-11.7,30.12,North,-999,0.0,0.0,43,0.00,,,-99.99,FreeWX-Wi 1.01,2013-01-23 13:19:00,
2013-01-23 07:29:00,5.2,-12.5,30.12,North,-999,0.0,0.0,43,0.00,,,-99.99,FreeWX-Wi 1.01,2013-01-23 13:29:00,
2013-01-23 07:39:00,4.5,-13.0,30.12,North,-999,0.0,0.0,43,0.00,,,-99.99,FreeWX-Wi 1.01,2013-01-23 13:39:00,
2013-01-23 07:49:00,3.7,-13.7,30.12,North,-999,0.0,2.2,43,0.00,,,-99.99,FreeWX-Wi 1.01,2013-01-23 13:49:00,
2013-01-23 07:59:00,3.0,-14.4,30.12,North,-999,0.0,0.0,43,0.00,,,-99.99,FreeWX-Wi 1.01,2013-01-23 13:59:00,
2013-01-23 08:09:00,2.5,-14.8,30.12,North,-999,0.0,2.7,43,0.00,,,-99.99,FreeWX-Wi 1.01,2013-01-23 14:09:00,
2013-01-23 08:19:00,2.7,-14.6,30.12,North,-999,0.0,2.2,43,0.00,,,-99.99,FreeWX-Wi 1.01,2013-01-23 14:19:00,
2013-01-23 08:29:00,3.2,-14.3,30.12,North,-999,0.0,2.2,43,0.00,,,-99.99,FreeWX-Wi 1.01,2013-01-23 14:29:00,
2013-01-23 08:39:00,4.1,-13.4,30.12,North,-999,0.0,0.0,43,0.00,,,-99.99,FreeWX-Wi 1.01,2013-01-23 14:39:00,
2013-01-23 08:49:00,5.5,-12.1,30.12,North,-999,0.0,0.0,43,0.00,,,-99.99,FreeWX-Wi 1.01,2013-01-23 14:49:00,
2013-01-23 08:59:00,7.0,-10.7,30.15,North,-999,0.0,3.6,43,0.00,,,-99.99,FreeWX-Wi 1.01,2013-01-23 14:59:00,
2013-01-23 09:09:00,7.9,-9.9,30.15,North,-999,0.0,2.7,43,0.00,,,-99.99,FreeWX-Wi 1.01,2013-01-23 15:09:00,
2013-01-23 09:19:00,8.6,-9.2,30.15,North,-999,0.0,2.2,43,0.00,,,-99.99,FreeWX-Wi 1.01,2013-01-23 15:19:00,
2013-01-23 09:29:00,9.3,-8.7,30.15,North,-999,0.0,3.6,43,0.00,,,-99.99,FreeWX-Wi 1.01,2013-01-23 15:29:00,
2013-01-23 09:39:00,9.9,-8.1,30.15,North,-999,0.0,7.2,43,0.00,,,-99.99,FreeWX-Wi 1.01,2013-01-23 15:39:00,
2013-01-23 09:49:00,10.2,-7.8,30.15,West,274,1.0,5.8,43,0.00,,,-99.99,FreeWX-Wi 1.01,2013-01-23 15:49:00,
2013-01-23 09:59:00,11.3,-6.9,30.15,WNW,296,2.0,4.9,43,0.00,,,-99.99,FreeWX-Wi 1.01,2013-01-23 15:59:00,
2013-01-23 10:09:00,12.4,-5.8,30.15,WNW,296,2.0,5.4,43,0.00,,,-99.99,FreeWX-Wi 1.01,2013-01-23 16:09:00,
2013-01-23 10:19:00,13.5,-4.9,30.18,WNW,297,3.0,6.3,43,0.00,,,-99.99,FreeWX-Wi 1.01,2013-01-23 16:19:00,
2013-01-23 10:29:00,14.4,3.4,30.18,NW,304,3.0,6.3,61,0.00,,,-99.99,FreeWX-Wi 1.01,2013-01-23 16:29:00,
2013-01-23 10:39:00,14.9,2.5,30.18,NW,305,4.0,8.1,57,0.00,,,-99.99,FreeWX-Wi 1.01,2013-01-23 16:39:00,
2013-01-23 10:49:00,15.4,2.1,30.18,NW,307,4.0,7.6,55,0.00,,,-99.99,FreeWX-Wi 1.01,2013-01-23 16:49:00,
2013-01-23 10:59:00,15.8,2.1,30.18,WNW,300,4.0,7.6,54,0.00,,,-99.99,FreeWX-Wi 1.01,2013-01-23 16:59:00,
2013-01-23 11:09:00,16.0,1.9,30.18,WNW,297,4.0,8.1,53,0.00,,,-99.99,FreeWX-Wi 1.01,2013-01-23 17:09:00,
2013-01-23 11:19:00,16.2,1.2,30.18,WNW,293,4.0,9.6,51,0.00,,,-99.99,FreeWX-Wi 1.01,2013-01-23 17:19:00,
2013-01-23 11:29:00,16.0,0.7,30.18,WNW,292,5.0,8.7,50,0.00,,,-99.99,FreeWX-Wi 1.01,2013-01-23 17:29:00,
2013-01-23 11:39:00,16.2,0.0,30.18,WNW,295,5.0,11.0,48,0.00,,,-99.99,FreeWX-Wi 1.01,2013-01-23 17:39:00,
2013-01-23 11:49:00,16.9,0.1,30.18,WNW,300,5.0,12.3,47,0.00,,,-99.99,FreeWX-Wi 1.01,2013-01-23 17:49:00,
2013-01-23 11:59:00,17.4,0.7,30.18,NW,304,5.0,10.1,47,0.00,,,-99.99,FreeWX-Wi 1.01,2013-01-23 17:59:00,
2013-01-23 12:09:00,17.4,-0.2,30.18,NW,308,5.0,10.5,45,0.00,,,-99.99,FreeWX-Wi 1.01,2013-01-23 18:09:00,
2013-01-23 12:19:00,16.7,-1.3,30.18,NW,306,5.0,10.5,44,0.00,,,-99.99,FreeWX-Wi 1.01,2013-01-23 18:19:00,
2013-01-23 12:29:00,16.5,-1.5,30.18,NW,312,5.0,10.5,44,0.00,,,-99.99,FreeWX-Wi 1.01,2013-01-23 18:29:00,
2013-01-23 12:39:00,16.5,-2.0,30.18,NW,310,5.0,12.8,43,0.00,,,-99.99,FreeWX-Wi 1.01,2013-01-23 18:39:00,
2013-01-23 12:49:00,16.3,-2.2,30.18,NW,313,5.0,8.3,43,0.00,,,-99.99,FreeWX-Wi 1.01,2013-01-23 18:49:00,
2013-01-23 12:59:00,16.2,-3.3,30.18,NW,310,5.0,10.5,41,0.00,,,-99.99,FreeWX-Wi 1.01,2013-01-23 18:59:00,
2013-01-23 13:09:00,16.2,-3.3,30.18,NW,314,5.0,15.0,41,0.00,,,-99.99,FreeWX-Wi 1.01,2013-01-23 19:09:00,
2013-01-23 13:19:00,16.0,-4.0,30.18,NW,318,6.0,13.2,40,0.00,,,-99.99,FreeWX-Wi 1.01,2013-01-23 19:19:00,
2013-01-23 13:29:00,16.3,-3.1,30.18,NW,317,6.0,11.0,41,0.00,,,-99.99,FreeWX-Wi 1.01,2013-01-23 19:29:00,
2013-01-23 13:39:00,15.4,-5.1,30.18,NW,316,6.0,10.5,39,0.00,,,-99.99,FreeWX-Wi 1.01,2013-01-23 19:39:00,
2013-01-23 13:49:00,14.9,-6.0,30.21,NW,323,6.0,10.1,38,0.00,,,-99.99,FreeWX-Wi 1.01,2013-01-23 19:49:00,
2013-01-23 13:59:00,14.5,-6.3,30.21,NW,324,6.0,12.8,38,0.00,,,-99.99,FreeWX-Wi 1.01,2013-01-23 19:59:00,
2013-01-23 14:09:00,14.2,-7.2,30.21,NW,321,6.0,14.5,37,0.00,,,-99.99,FreeWX-Wi 1.01,2013-01-23 20:09:00,
2013-01-23 14:19:00,13.5,-7.4,30.21,NW,315,6.0,11.0,38,0.00,,,-99.99,FreeWX-Wi 1.01,2013-01-23 20:19:00,
2013-01-23 14:29:00,13.5,-7.4,30.24,NW,312,6.0,14.5,38,0.00,,,-99.99,FreeWX-Wi 1.01,2013-01-23 20:29:00,
2013-01-23 14:39:00,12.7,-8.0,30.24,NW,319,6.0,13.6,38,0.00,,,-99.99,FreeWX-Wi 1.01,2013-01-23 20:39:00,
2013-01-23 14:50:00,12.0,-8.7,30.24,NW,320,6.0,11.9,38,0.00,,,-99.99,FreeWX-Wi 1.01,2013-01-23 20:50:00,
2013-01-23 15:00:00,11.7,-9.0,30.27,NNW,329,6.0,12.8,38,0.00,,,-99.99,FreeWX-Wi 1.01,2013-01-23 21:00:00,
2013-01-23 15:10:00,11.1,-9.4,30.27,NNW,327,6.0,12.8,38,0.00,,,-99.99,FreeWX-Wi 1.01,2013-01-23 21:10:00,
2013-01-23 15:20:00,10.4,-10.1,30.27,NW,321,6.0,14.5,38,0.00,,,-99.99,FreeWX-Wi 1.01,2013-01-23 21:20:00,
2013-01-23 15:30:00,9.7,-10.8,30.27,NW,315,6.0,10.1,38,0.00,,,-99.99,FreeWX-Wi 1.01,2013-01-23 21:30:00,
2013-01-23 15:40:00,9.1,-11.2,30.27,NW,314,6.0,13.2,38,0.00,,,-99.99,FreeWX-Wi 1.01,2013-01-23 21:40:00,
2013-01-23 15:50:00,8.6,-11.7,30.30,NW,319,6.0,10.5,38,0.00,,,-99.99,FreeWX-Wi 1.01,2013-01-23 21:50:00,
2013-01-23 16:00:00,7.9,-12.5,30.30,NW,322,6.0,9.6,38,0.00,,,-99.99,FreeWX-Wi 1.01,2013-01-23 22:00:00,
2013-01-23 16:10:00,7.3,-12.8,30.30,NW,326,6.0,15.0,38,0.00,,,-99.99,FreeWX-Wi 1.01,2013-01-23 22:10:00,
2013-01-23 16:20:00,6.8,-13.4,30.30,NNW,327,6.0,12.3,38,0.00,,,-99.99,FreeWX-Wi 1.01,2013-01-23 22:20:00,
2013-01-23 16:30:00,5.9,-14.3,30.33,NNW,333,6.0,10.5,38,0.00,,,-99.99,FreeWX-Wi 1.01,2013-01-23 22:30:00,
2013-01-23 16:40:00,5.7,-14.3,30.33,NNW,333,5.0,11.0,38,0.00,,,-99.99,FreeWX-Wi 1.01,2013-01-23 22:40:00,
2013-01-23 16:50:00,5.2,-14.8,30.33,NNW,337,5.0,12.8,38,0.00,,,-99.99,FreeWX-Wi 1.01,2013-01-23 22:50:00,
2013-01-23 17:00:00,4.1,-15.9,30.36,NNW,332,5.0,10.5,38,0.00,,,-99.99,FreeWX-Wi 1.01,2013-01-23 23:00:00,
2013-01-23 17:10:00,2.8,-17.0,30.36,NNW,332,5.0,8.3,38,0.00,,,-99.99,FreeWX-Wi 1.01,2013-01-23 23:10:00,
2013-01-23 17:20:00,1.9,-17.7,30.36,NNW,335,5.0,10.5,38,0.00,,,-99.99,FreeWX-Wi 1.01,2013-01-23 23:20:00,
2013-01-23 17:30:00,1.2,-18.4,30.39,NNW,335,5.0,8.3,38,0.00,,,-99.99,FreeWX-Wi 1.01,2013-01-23 23:30:00,
2013-01-23 17:40:00,0.7,-18.9,30.39,NNW,334,5.0,8.1,38,0.00,,,-99.99,FreeWX-Wi 1.01,2013-01-23 23:40:00,
2013-01-23 17:50:00,0.3,-19.3,30.39,NNW,334,5.0,10.1,38,0.00,,,-99.99,FreeWX-Wi 1.01,2013-01-23 23:50:00,
2013-01-23 18:00:00,0.0,-19.5,30.39,NNW,335,5.0,8.7,38,0.00,,,-99.99,FreeWX-Wi 1.01,2013-01-24 00:00:00,
2013-01-23 18:10:00,-0.4,-19.8,30.39,NNW,335,5.0,0.0,38,0.00,,,-99.99,FreeWX-Wi 1.01,2013-01-24 00:10:00,
2013-01-23 18:20:00,-0.6,-20.0,30.39,NNW,335,5.0,0.0,38,0.00,,,-99.99,FreeWX-Wi 1.01,2013-01-24 00:20:00,
2013-01-23 18:30:00,-0.9,-20.4,30.41,NNW,333,5.0,8.7,38,0.00,,,-99.99,FreeWX-Wi 1.01,2013-01-24 00:30:00,
2013-01-23 18:40:00,-1.3,-20.7,30.41,NNW,333,5.0,5.8,38,0.00,,,-99.99,FreeWX-Wi 1.01,2013-01-24 00:40:00,
2013-01-23 18:50:00,-1.5,-20.9,30.41,NNW,334,4.0,8.3,38,0.00,,,-99.99,FreeWX-Wi 1.01,2013-01-24 00:50:00,
2013-01-23 19:00:00,-1.8,-21.1,30.41,NNW,336,4.0,8.3,38,0.00,,,-99.99,FreeWX-Wi 1.01,2013-01-24 01:00:00,
2013-01-23 19:10:00,-2.0,-21.3,30.41,NNW,336,4.0,5.4,38,0.00,,,-99.99,FreeWX-Wi 1.01,2013-01-24 01:10:00,
2013-01-23 19:20:00,-2.2,-21.5,30.44,NNW,336,4.0,5.4,38,0.00,,,-99.99,FreeWX-Wi 1.01,2013-01-24 01:20:00,
2013-01-23 19:30:00,-2.2,-21.5,30.44,NNW,336,4.0,0.0,38,0.00,,,-99.99,FreeWX-Wi 1.01,2013-01-24 01:30:00,
2013-01-23 19:40:00,-2.6,-21.8,30.44,NNW,336,4.0,0.0,38,0.00,,,-99.99,FreeWX-Wi 1.01,2013-01-24 01:40:00,
2013-01-23 19:50:00,-2.6,-21.8,30.44,NNW,339,4.0,8.1,38,0.00,,,-99.99,FreeWX-Wi 1.01,2013-01-24 01:50:00,
2013-01-23 20:00:00,-2.4,-21.6,30.44,NNW,342,4.0,10.5,38,0.00,,,-99.99,FreeWX-Wi 1.01,2013-01-24 02:00:00,
2013-01-23 20:10:00,-2.4,-21.6,30.44,NNW,345,4.0,8.3,38,0.00,,,-99.99,FreeWX-Wi 1.01,2013-01-24 02:10:00,
2013-01-23 20:20:00,-2.2,-21.5,30.47,NNW,345,4.0,0.0,38,0.00,,,-99.99,FreeWX-Wi 1.01,2013-01-24 02:20:00,
2013-01-23 20:30:00,-2.0,-21.3,30.47,NNW,345,4.0,0.0,38,0.00,,,-99.99,FreeWX-Wi 1.01,2013-01-24 02:30:00,
2013-01-23 20:40:00,-1.8,-21.1,30.47,NNW,347,4.0,11.0,38,0.00,,,-99.99,FreeWX-Wi 1.01,2013-01-24 02:40:00,
2013-01-23 20:50:00,-1.8,-21.1,30.47,North,351,5.0,13.2,38,0.00,,,-99.99,FreeWX-Wi 1.01,2013-01-24 02:50:00,
2013-01-23 21:00:00,-2.2,-21.5,30.47,North,358,6.0,14.5,38,0.00,,,-99.99,FreeWX-Wi 1.01,2013-01-24 03:00:00,
2013-01-23 21:10:00,-2.2,-21.5,30.47,North,8,7.0,12.3,38,0.00,,,-99.99,FreeWX-Wi 1.01,2013-01-24 03:10:00,
2013-01-23 21:20:00,-2.4,-21.6,30.50,North,10,7.0,11.0,38,0.00,,,-99.99,FreeWX-Wi 1.01,2013-01-24 03:20:00,
2013-01-23 21:30:00,-2.6,-21.8,30.50,North,11,7.0,10.1,38,0.00,,,-99.99,FreeWX-Wi 1.01,2013-01-24 03:30:00,
2013-01-23 21:40:00,-2.7,-22.0,30.50,North,10,7.0,11.0,38,0.00,,,-99.99,FreeWX-Wi 1.01,2013-01-24 03:40:00,
2013-01-23 21:50:00,-2.9,-22.2,30.50,NNE,16,8.0,14.1,38,0.00,,,-99.99,FreeWX-Wi 1.01,2013-01-24 03:50:00,
2013-01-23 22:00:00,-3.1,-22.4,30.50,NNE,16,8.0,12.3,38,0.00,,,-99.99,FreeWX-Wi 1.01,2013-01-24 04:00:00,
2013-01-23 22:10:00,-3.5,-22.7,30.50,NNE,17,8.0,10.5,38,0.00,,,-99.99,FreeWX-Wi 1.01,2013-01-24 04:10:00,
2013-01-23 22:20:00,-3.6,-22.7,30.53,NNE,17,8.0,8.0,38,0.00,,,-99.99,FreeWX-Wi 1.01,2013-01-24 04:20:00,
2013-01-23 22:30:00,-3.8,-22.9,30.53,NNE,17,8.0,8.3,38,0.00,,,-99.99,FreeWX-Wi 1.01,2013-01-24 04:30:00,
2013-01-23 22:40:00,-4.0,-23.1,30.53,NNE,20,7.0,8.3,38,0.00,,,-99.99,FreeWX-Wi 1.01,2013-01-24 04:40:00,
2013-01-23 22:50:00,-4.2,-23.3,30.53,NNE,21,7.0,10.1,38,0.00,,,-99.99,FreeWX-Wi 1.01,2013-01-24 04:50:00,
2013-01-23 23:00:00,-4.4,-23.4,30.53,NNE,22,7.0,8.3,38,0.00,,,-99.99,FreeWX-Wi 1.01,2013-01-24 05:00:00,
2013-01-23 23:10:00,-4.4,-23.4,30.53,NNE,24,6.0,8.3,38,0.00,,,-99.99,FreeWX-Wi 1.01,2013-01-24 05:10:00,
2013-01-23 23:20:00,-4.7,-23.8,30.53,NNE,24,6.0,6.3,38,0.00,,,-99.99,FreeWX-Wi 1.01,2013-01-24 05:20:00,
2013-01-23 23:30:00,-4.7,-23.8,30.53,NNE,24,6.0,10.5,38,0.00,,,-99.99,FreeWX-Wi 1.01,2013-01-24 05:30:00,
2013-01-23 23:40:00,-4.9,-24.0,30.53,NNE,23,6.0,7.6,38,0.00,,,-99.99,FreeWX-Wi 1.01,2013-01-24 05:40:00,
2013-01-23 23:50:00,-5.1,-24.2,30.56,NNE,23,6.0,6.0,38,0.00,,,-99.99,FreeWX-Wi 1.01,2013-01-24 05:50:00,